time, Switch, Flow(0), Analog(2)
yyyy/mm/dd HH:MM:SS.fff, True=FILTERED|False=TOTAL, L/min, V
2023/06/29 18:44:04.064, False, 4.724, 0.141680
2023/06/29 18:44:04.568, False, 4.967, 0.143664
2023/06/29 18:44:05.064, False, 5.054, 0.144274
2023/06/29 18:44:05.568, False, 4.643, 0.142290
2023/06/29 18:44:06.072, False, 5.307, 0.143130
2023/06/29 18:44:06.576, False, 4.973, 0.143282
2023/06/29 18:44:07.072, False, 5.054, 0.144808
2023/06/29 18:44:07.576, False, 4.974, 0.146563
2023/06/29 18:44:08.080, False, 4.642, 0.143816
2023/06/29 18:44:08.575, False, 5.062, 0.145113
2023/06/29 18:44:09.080, False, 4.642, 0.145037
2023/06/29 18:44:09.584, False, 4.636, 0.140764
2023/06/29 18:44:10.088, False, 4.981, 0.140917
2023/06/29 18:44:10.584, False, 4.710, 0.143511
2023/06/29 18:44:11.087, False, 4.648, 0.143053
2023/06/29 18:44:11.591, False, 4.968, 0.144579
2023/06/29 18:44:12.088, False, 5.054, 0.144427
2023/06/29 18:44:12.592, False, 4.974, 0.146334
2023/06/29 18:44:13.095, False, 4.650, 0.143969
2023/06/29 18:44:13.591, False, 5.048, 0.144427
2023/06/29 18:44:14.096, False, 4.972, 0.143511
2023/06/29 18:44:14.599, False, 4.974, 0.145342
2023/06/29 18:44:15.103, False, 4.974, 0.142214
2023/06/29 18:44:15.599, False, 4.717, 0.142596
2023/06/29 18:44:16.103, False, 4.974, 0.143893
2023/06/29 18:44:16.599, False, 5.054, 0.144350
2023/06/29 18:44:17.103, False, 4.974, 0.142977
2023/06/29 18:44:17.607, False, 4.974, 0.143816
2023/06/29 18:44:18.111, False, 4.642, 0.141680
2023/06/29 18:44:18.607, False, 5.054, 0.143816
2023/06/29 18:44:19.111, False, 4.974, 0.143130
2023/06/29 18:44:19.615, False, 4.981, 0.144884
2023/06/29 18:44:20.111, False, 4.710, 0.143816
2023/06/29 18:44:20.615, False, 4.646, 0.143359
2023/06/29 18:44:21.119, False, 4.977, 0.142672
2023/06/29 18:44:21.616, False, 4.718, 0.142290
2023/06/29 18:44:22.120, False, 4.967, 0.143511
2023/06/29 18:44:22.624, False, 4.643, 0.142672
2023/06/29 18:44:23.127, False, 4.641, 0.145647
2023/06/29 18:44:23.624, False, 4.725, 0.145190
2023/06/29 18:44:24.128, False, 4.637, 0.144503
2023/06/29 18:44:24.623, False, 5.055, 0.143893
2023/06/29 18:44:25.128, False, 4.642, 0.143435
2023/06/29 18:44:25.631, False, 4.641, 0.144961
2023/06/29 18:44:26.135, False, 4.648, 0.145037
2023/06/29 18:44:26.631, False, 4.712, 0.143664
2023/06/29 18:44:27.136, False, 4.642, 0.143282
2023/06/29 18:44:27.640, False, 4.645, 0.143053
2023/06/29 18:44:28.136, False, 4.715, 0.142443
2023/06/29 18:44:28.640, False, 4.974, 0.144350
2023/06/29 18:44:29.144, False, 4.643, 0.144732
2023/06/29 18:44:29.640, False, 5.059, 0.143740
2023/06/29 18:44:30.144, False, 4.640, 0.144961
2023/06/29 18:44:30.648, False, 4.309, 0.144045
2023/06/29 18:44:31.143, False, 5.053, 0.143893
2023/06/29 18:44:31.648, False, 4.974, 0.145266
2023/06/29 18:44:32.144, False, 4.722, 0.145418
2023/06/29 18:44:32.648, False, 4.969, 0.144808
2023/06/29 18:44:33.152, False, 4.981, 0.142824
2023/06/29 18:44:33.648, False, 4.711, 0.144274
2023/06/29 18:44:34.152, False, 4.978, 0.143816
2023/06/29 18:44:34.656, False, 4.970, 0.145571
2023/06/29 18:44:35.152, False, 4.724, 0.144121
2023/06/29 18:44:35.656, False, 4.636, 0.145495
2023/06/29 18:44:36.160, False, 4.974, 0.142977
2023/06/29 18:44:36.656, False, 4.717, 0.144656
2023/06/29 18:44:37.160, False, 4.976, 0.142367
2023/06/29 18:44:37.664, False, 4.642, 0.144198
2023/06/29 18:44:38.159, False, 5.062, 0.144350
2023/06/29 18:44:38.664, False, 4.966, 0.143816
2023/06/29 18:44:39.168, False, 4.642, 0.142519
2023/06/29 18:44:39.664, False, 4.718, 0.146258
2023/06/29 18:44:40.168, False, 4.643, 0.144732
2023/06/29 18:44:40.672, False, 4.641, 0.144350
2023/06/29 18:44:41.176, False, 4.649, 0.144579
2023/06/29 18:44:41.672, False, 4.710, 0.144198
2023/06/29 18:44:42.176, False, 4.643, 0.143282
2023/06/29 18:44:42.680, False, 4.975, 0.143816
2023/06/29 18:44:43.176, False, 4.716, 0.145342
2023/06/29 18:44:43.680, False, 4.642, 0.144427
2023/06/29 18:44:44.184, False, 4.975, 0.143130
2023/06/29 18:44:44.680, False, 4.379, 0.141299
2023/06/29 18:44:45.184, False, 4.646, 0.142672
2023/06/29 18:44:45.687, False, 4.970, 0.143587
2023/06/29 18:44:46.184, False, 4.717, 0.141909
2023/06/29 18:44:46.688, False, 4.978, 0.143740
2023/06/29 18:44:47.192, False, 4.639, 0.141222
2023/06/29 18:44:47.688, False, 5.054, 0.145342
2023/06/29 18:44:48.191, False, 4.642, 0.144274
2023/06/29 18:44:48.695, False, 4.643, 0.143893
2023/06/29 18:44:49.192, False, 5.054, 0.142367
2023/06/29 18:44:49.695, False, 4.311, 0.143893
2023/06/29 18:44:50.200, False, 4.974, 0.144274
2023/06/29 18:44:50.696, False, 4.717, 0.144350
2023/06/29 18:44:51.200, False, 4.642, 0.144732
2023/06/29 18:44:51.704, False, 4.974, 0.143664
2023/06/29 18:44:52.208, False, 4.642, 0.144274
2023/06/29 18:44:52.704, False, 5.054, 0.143511
2023/06/29 18:44:53.207, False, 4.642, 0.144350
2023/06/29 18:44:53.712, False, 5.306, 0.144732
2023/06/29 18:44:54.216, False, 4.651, 0.143130
2023/06/29 18:44:54.711, False, 5.045, 0.145418
2023/06/29 18:44:55.216, False, 4.643, 0.145647
2023/06/29 18:44:55.720, False, 4.646, 0.146029
2023/06/29 18:44:56.216, False, 4.714, 0.144808
2023/06/29 18:44:56.720, False, 4.974, 0.141604
2023/06/29 18:44:57.223, False, 4.974, 0.142443
2023/06/29 18:44:57.719, False, 4.717, 0.142977
2023/06/29 18:44:58.224, False, 5.306, 0.143130
2023/06/29 18:44:58.728, False, 4.643, 0.143664
2023/06/29 18:44:59.224, False, 4.724, 0.144656
2023/06/29 18:44:59.728, False, 4.636, 0.144656
2023/06/29 18:45:00.232, False, 4.644, 0.144884
2023/06/29 18:45:00.728, False, 4.717, 0.144656
2023/06/29 18:45:01.231, False, 4.973, 0.143587
2023/06/29 18:45:01.736, False, 4.643, 0.141451
2023/06/29 18:45:02.240, False, 4.645, 0.140688
2023/06/29 18:45:02.735, False, 4.713, 0.143893
2023/06/29 18:45:03.240, False, 4.643, 0.142367
2023/06/29 18:45:03.743, False, 4.973, 0.143969
2023/06/29 18:45:04.240, False, 4.717, 0.143740
2023/06/29 18:45:04.744, False, 4.643, 0.143587
2023/06/29 18:45:05.248, False, 4.974, 0.144350
2023/06/29 18:45:05.743, False, 4.717, 0.144503
2023/06/29 18:45:06.247, False, 4.974, 0.143816
2023/06/29 18:45:06.751, False, 4.974, 0.144656
2023/06/29 18:45:07.247, False, 4.717, 0.144274
2023/06/29 18:45:07.752, False, 4.980, 0.145037
2023/06/29 18:45:08.256, False, 4.968, 0.144350
2023/06/29 18:45:08.752, False, 4.383, 0.144579
2023/06/29 18:45:09.256, False, 4.971, 0.142214
2023/06/29 18:45:09.760, False, 4.643, 0.143359
2023/06/29 18:45:10.256, False, 5.054, 0.143969
2023/06/29 18:45:10.760, False, 4.974, 0.143969
2023/06/29 18:45:11.264, False, 4.979, 0.144045
2023/06/29 18:45:11.760, False, 5.049, 0.144350
2023/06/29 18:45:12.263, False, 4.977, 0.144350
2023/06/29 18:45:12.759, False, 4.715, 0.144579
2023/06/29 18:45:13.264, False, 4.974, 0.145418
2023/06/29 18:45:13.768, False, 4.643, 0.144045
2023/06/29 18:45:14.272, False, 4.642, 0.143282
2023/06/29 18:45:14.767, False, 4.717, 0.142672
2023/06/29 18:45:15.272, False, 4.651, 0.144427
2023/06/29 18:45:15.775, False, 4.633, 0.145037
2023/06/29 18:45:16.280, False, 4.976, 0.144121
2023/06/29 18:45:16.776, False, 4.718, 0.143969
2023/06/29 18:45:17.280, False, 4.972, 0.143435
2023/06/29 18:45:17.784, False, 4.976, 0.146410
2023/06/29 18:45:18.280, False, 4.718, 0.143816
2023/06/29 18:45:18.784, False, 4.972, 0.144656
2023/06/29 18:45:19.288, False, 4.976, 0.144656
2023/06/29 18:45:19.784, False, 4.717, 0.144961
2023/06/29 18:45:20.287, False, 4.641, 0.144121
2023/06/29 18:45:20.792, False, 4.981, 0.143359
2023/06/29 18:45:21.288, False, 5.050, 0.144045
2023/06/29 18:45:21.791, False, 4.640, 0.145037
2023/06/29 18:45:22.296, False, 4.975, 0.143511
2023/06/29 18:45:22.791, False, 5.060, 0.142824
2023/06/29 18:45:23.295, False, 4.968, 0.143664
2023/06/29 18:45:23.800, False, 4.646, 0.144427
2023/06/29 18:45:24.295, False, 5.051, 0.143511
2023/06/29 18:45:24.799, False, 4.641, 0.144198
2023/06/29 18:45:25.296, False, 5.054, 0.142748
2023/06/29 18:45:25.800, False, 4.647, 0.144732
2023/06/29 18:45:26.303, False, 4.637, 0.144350
2023/06/29 18:45:26.808, False, 4.984, 0.144121
2023/06/29 18:45:27.304, False, 5.052, 0.144961
2023/06/29 18:45:27.808, False, 4.634, 0.147402
2023/06/29 18:45:28.312, False, 4.982, 0.143893
2023/06/29 18:45:28.807, False, 5.047, 0.146563
2023/06/29 18:45:29.311, False, 4.647, 0.144045
2023/06/29 18:45:29.816, False, 4.969, 0.141909
2023/06/29 18:45:30.312, False, 4.717, 0.144274
2023/06/29 18:45:30.815, False, 4.642, 0.143587
2023/06/29 18:45:31.320, False, 4.651, 0.145418
2023/06/29 18:45:31.816, False, 5.049, 0.143511
2023/06/29 18:45:32.320, False, 4.638, 0.144274
2023/06/29 18:45:32.824, False, 4.642, 0.143435
2023/06/29 18:45:33.319, False, 5.054, 0.143893
2023/06/29 18:45:33.824, False, 4.974, 0.145266
2023/06/29 18:45:34.327, False, 4.976, 0.143511
2023/06/29 18:45:34.824, False, 4.716, 0.144045
2023/06/29 18:45:35.328, False, 5.305, 0.142901
2023/06/29 18:45:35.832, False, 4.642, 0.145724
2023/06/29 18:45:36.328, False, 5.062, 0.144045
2023/06/29 18:45:36.832, False, 4.967, 0.143130
2023/06/29 18:45:37.336, False, 4.974, 0.143511
2023/06/29 18:45:37.840, False, 4.974, 0.143435
2023/06/29 18:45:38.335, False, 5.054, 0.144656
2023/06/29 18:45:38.839, False, 4.974, 0.143359
2023/06/29 18:45:39.343, False, 4.974, 0.143740
2023/06/29 18:45:39.839, False, 4.726, 0.146487
2023/06/29 18:45:40.343, False, 4.965, 0.143969
2023/06/29 18:45:40.847, False, 4.642, 0.146029
2023/06/29 18:45:41.343, False, 4.717, 0.143969
2023/06/29 18:45:41.847, False, 4.974, 0.143969
2023/06/29 18:45:42.351, False, 4.642, 0.142901
2023/06/29 18:45:42.847, False, 5.056, 0.143435
2023/06/29 18:45:43.351, False, 4.647, 0.146334
2023/06/29 18:45:43.855, False, 4.973, 0.144732
2023/06/29 18:45:44.351, False, 5.055, 0.144732
2023/06/29 18:45:44.856, False, 4.643, 0.145876
2023/06/29 18:45:45.359, False, 4.971, 0.143053
2023/06/29 18:45:45.855, False, 4.715, 0.142519
2023/06/29 18:45:46.360, False, 4.644, 0.143740
2023/06/29 18:45:46.863, False, 4.978, 0.141451
2023/06/29 18:45:47.368, False, 4.975, 0.142367
2023/06/29 18:45:47.863, False, 5.054, 0.142901
2023/06/29 18:45:48.367, False, 4.642, 0.144121
2023/06/29 18:45:48.872, False, 4.965, 0.143587
2023/06/29 18:45:49.368, False, 5.058, 0.143969
2023/06/29 18:45:49.872, False, 4.980, 0.145418
2023/06/29 18:45:50.376, False, 4.635, 0.144808
2023/06/29 18:45:50.872, False, 4.725, 0.143359
2023/06/29 18:45:51.376, False, 4.635, 0.144961
2023/06/29 18:45:51.880, False, 4.974, 0.145342
2023/06/29 18:45:52.384, False, 4.643, 0.144884
2023/06/29 18:45:52.880, False, 5.055, 0.144503
2023/06/29 18:45:53.384, False, 4.975, 0.143053
2023/06/29 18:45:53.887, False, 4.647, 0.142443
2023/06/29 18:45:54.384, False, 5.048, 0.142061
2023/06/29 18:45:54.888, False, 4.978, 0.144579
2023/06/29 18:45:55.384, False, 4.712, 0.144808
2023/06/29 18:45:55.887, False, 4.648, 0.142519
2023/06/29 18:45:56.392, False, 4.970, 0.142672
2023/06/29 18:45:56.887, False, 4.715, 0.142672
2023/06/29 18:45:57.392, False, 4.646, 0.142977
2023/06/29 18:45:57.896, False, 4.646, 0.143435
2023/06/29 18:45:58.392, False, 4.714, 0.144656
2023/06/29 18:45:58.896, False, 4.977, 0.142367
2023/06/29 18:45:59.400, False, 4.636, 0.144427
2023/06/29 18:45:59.896, False, 5.054, 0.145724
2023/06/29 18:46:00.400, False, 4.974, 0.144198
2023/06/29 18:46:00.904, False, 4.643, 0.142214
2023/06/29 18:46:01.400, False, 4.723, 0.143816
2023/06/29 18:46:01.904, False, 4.968, 0.145876
2023/06/29 18:46:02.399, False, 4.726, 0.141451
2023/06/29 18:46:02.904, False, 4.965, 0.144732
2023/06/29 18:46:03.408, False, 4.978, 0.143053
2023/06/29 18:46:03.904, False, 4.717, 0.143435
2023/06/29 18:46:04.408, False, 4.971, 0.144579
2023/06/29 18:46:04.912, False, 4.974, 0.141756
2023/06/29 18:46:05.408, False, 4.725, 0.143893
2023/06/29 18:46:05.912, False, 4.635, 0.142748
2023/06/29 18:46:06.416, False, 4.642, 0.143893
2023/06/29 18:46:06.912, False, 4.723, 0.145724
2023/06/29 18:46:07.416, False, 4.968, 0.143130
2023/06/29 18:46:07.912, False, 4.717, 0.143435
2023/06/29 18:46:08.416, False, 4.974, 0.141146
2023/06/29 18:46:08.920, False, 4.974, 0.143206
2023/06/29 18:46:09.424, False, 4.975, 0.144427
2023/06/29 18:46:09.920, False, 4.717, 0.143969
2023/06/29 18:46:10.424, False, 4.974, 0.145113
2023/06/29 18:46:10.920, False, 4.717, 0.143130
2023/06/29 18:46:11.424, False, 4.647, 0.144198
2023/06/29 18:46:11.927, False, 4.969, 0.145037
2023/06/29 18:46:12.424, False, 4.717, 0.145113
2023/06/29 18:46:12.928, False, 4.642, 0.144198
2023/06/29 18:46:13.432, False, 4.643, 0.143893
2023/06/29 18:46:13.928, False, 4.717, 0.144274
2023/06/29 18:46:14.432, False, 4.974, 0.143740
2023/06/29 18:46:14.936, False, 4.644, 0.142977
2023/06/29 18:46:15.432, False, 5.052, 0.143740
2023/06/29 18:46:15.935, False, 4.642, 0.144274
2023/06/29 18:46:16.440, False, 4.980, 0.147173
2023/06/29 18:46:16.935, False, 4.712, 0.143282
2023/06/29 18:46:17.440, False, 4.974, 0.144579
2023/06/29 18:46:17.943, False, 4.976, 0.143969
2023/06/29 18:46:18.439, False, 4.723, 0.142061
2023/06/29 18:46:18.943, False, 4.968, 0.143587
2023/06/29 18:46:19.447, False, 4.975, 0.143587
2023/06/29 18:46:19.943, False, 4.717, 0.146715
2023/06/29 18:46:20.447, False, 4.647, 0.144121
2023/06/29 18:46:20.952, False, 4.967, 0.143206
2023/06/29 18:46:21.447, False, 5.055, 0.142824
2023/06/29 18:46:21.951, False, 4.647, 0.145037
2023/06/29 18:46:22.456, False, 4.637, 0.143435
2023/06/29 18:46:22.960, False, 4.974, 0.144503
2023/06/29 18:46:23.456, False, 4.718, 0.144198
2023/06/29 18:46:23.960, False, 4.642, 0.143740
2023/06/29 18:46:24.464, False, 4.974, 0.143740
2023/06/29 18:46:24.960, False, 4.717, 0.144884
2023/06/29 18:46:25.464, False, 4.649, 0.144350
2023/06/29 18:46:25.967, False, 4.971, 0.142977
2023/06/29 18:46:26.463, False, 4.716, 0.144045
2023/06/29 18:46:26.967, False, 4.972, 0.142367
2023/06/29 18:46:27.472, False, 4.642, 0.143282
2023/06/29 18:46:27.976, False, 4.973, 0.144045
2023/06/29 18:46:28.472, False, 5.056, 0.145113
2023/06/29 18:46:28.976, False, 4.644, 0.142824
2023/06/29 18:46:29.472, False, 4.716, 0.143435
2023/06/29 18:46:29.976, False, 4.642, 0.142290
2023/06/29 18:46:30.479, False, 4.974, 0.146792
2023/06/29 18:46:30.984, False, 4.984, 0.144732
2023/06/29 18:46:31.480, False, 4.708, 0.143816
2023/06/29 18:46:31.984, False, 4.974, 0.142367
2023/06/29 18:46:32.488, False, 4.974, 0.141451
2023/06/29 18:46:32.984, False, 4.717, 0.143130
2023/06/29 18:46:33.488, False, 4.974, 0.144427
2023/06/29 18:46:33.992, False, 4.974, 0.142748
2023/06/29 18:46:34.496, False, 5.305, 0.144503
2023/06/29 18:46:34.992, False, 4.717, 0.143130
2023/06/29 18:46:35.495, False, 4.980, 0.145495
2023/06/29 18:46:35.000, False, 4.968, 0.145113
2023/06/29 18:46:36.496, False, 5.055, 0.142977
2023/06/29 18:46:36.999, False, 4.973, 0.142138
2023/06/29 18:46:37.504, False, 4.642, 0.144884
2023/06/29 18:46:37.000, False, 4.717, 0.144350
2023/06/29 18:46:38.504, False, 4.974, 0.144808
2023/06/29 18:46:39.008, False, 4.980, 0.144961
2023/06/29 18:46:39.504, False, 4.375, 0.146868
2023/06/29 18:46:40.007, False, 3.979, 0.144808
2023/06/29 18:46:40.512, False, 3.321, 0.144121
2023/06/29 18:46:41.008, False, 3.365, 0.144808
2023/06/29 18:46:41.511, False, 3.320, 0.143435
2023/06/29 18:46:42.016, False, 3.312, 0.142824
2023/06/29 18:46:42.512, False, 3.035, 0.143435
2023/06/29 18:46:43.016, False, 3.313, 0.142519
2023/06/29 18:46:43.520, False, 3.316, 0.145266
2023/06/29 18:46:44.016, False, 3.370, 0.144045
2023/06/29 18:46:44.519, False, 2.984, 0.147326
2023/06/29 18:46:45.024, False, 2.984, 0.143664
2023/06/29 18:46:45.528, False, 2.985, 0.143816
2023/06/29 18:46:46.024, False, 3.369, 0.142138
2023/06/29 18:46:46.528, False, 2.984, 0.142901
2023/06/29 18:46:47.032, False, 3.316, 0.144503
2023/06/29 18:46:47.527, False, 3.033, 0.144198
2023/06/29 18:46:48.032, False, 2.986, 0.143969
2023/06/29 18:46:48.536, False, 2.983, 0.144732
2023/06/29 18:46:49.032, False, 3.370, 0.143740
2023/06/29 18:46:49.536, False, 2.984, 0.143435
2023/06/29 18:46:50.040, False, 2.984, 0.142061
2023/06/29 18:46:50.536, False, 3.707, 0.142901
2023/06/29 18:46:51.040, False, 3.986, 0.141680
2023/06/29 18:46:51.544, False, 4.304, 0.144045
2023/06/29 18:46:52.040, False, 4.379, 0.143740
2023/06/29 18:46:52.544, False, 4.642, 0.144427
2023/06/29 18:46:53.048, False, 4.311, 0.144808
2023/06/29 18:46:53.544, False, 4.380, 0.144503
2023/06/29 18:46:54.048, False, 4.643, 0.144198
2023/06/29 18:46:54.552, False, 4.311, 0.142138
2023/06/29 18:46:55.048, False, 4.380, 0.141756
2023/06/29 18:46:55.551, False, 4.642, 0.144121
2023/06/29 18:46:56.056, False, 4.311, 0.144121
2023/06/29 18:46:56.552, False, 4.380, 0.141833
2023/06/29 18:46:57.056, False, 4.311, 0.143587
2023/06/29 18:46:57.559, False, 4.311, 0.142519
2023/06/29 18:46:58.064, False, 4.313, 0.143816
2023/06/29 18:46:58.560, False, 4.716, 0.142367
2023/06/29 18:46:59.064, False, 4.315, 0.143587
2023/06/29 18:46:59.568, False, 4.637, 0.144274
2023/06/29 18:47:00.064, False, 4.380, 0.145724
2023/06/29 18:47:00.568, False, 4.643, 0.143816
2023/06/29 18:47:01.072, False, 4.643, 0.145953
2023/06/29 18:47:01.568, False, 4.379, 0.143816
2023/06/29 18:47:02.072, False, 4.643, 0.145113
2023/06/29 18:47:02.576, False, 4.642, 0.143587
2023/06/29 18:47:03.072, False, 4.380, 0.144884
2023/06/29 18:47:03.576, False, 4.642, 0.144884
2023/06/29 18:47:04.080, False, 4.642, 0.145724
2023/06/29 18:47:04.575, False, 4.382, 0.142214
2023/06/29 18:47:05.080, False, 4.641, 0.144656
2023/06/29 18:47:05.583, False, 4.643, 0.143435
2023/06/29 18:47:06.088, False, 4.642, 0.144732
2023/06/29 18:47:06.584, False, 4.718, 0.145418
2023/06/29 18:47:07.087, False, 4.643, 0.145571
2023/06/29 18:47:07.592, False, 4.310, 0.143130
2023/06/29 18:47:08.096, False, 4.642, 0.143740
2023/06/29 18:47:08.591, False, 4.384, 0.141985
2023/06/29 18:47:09.095, False, 4.308, 0.143740
2023/06/29 18:47:09.600, False, 4.642, 0.143969
2023/06/29 18:47:10.095, False, 4.380, 0.147707
2023/06/29 18:47:10.599, False, 4.643, 0.141985
2023/06/29 18:47:11.095, False, 4.380, 0.145571
2023/06/29 18:47:11.599, False, 4.311, 0.144121
2023/06/29 18:47:12.103, False, 4.648, 0.142672
2023/06/29 18:47:12.599, False, 4.375, 0.143740
2023/06/29 18:47:13.103, False, 4.311, 0.142214
2023/06/29 18:47:13.607, False, 4.642, 0.144274
2023/06/29 18:47:14.103, False, 4.381, 0.145037
2023/06/29 18:47:14.608, False, 4.643, 0.143664
2023/06/29 18:47:15.112, False, 4.651, 0.143740
2023/06/29 18:47:15.608, False, 4.379, 0.142367
2023/06/29 18:47:16.111, False, 4.636, 0.142748
2023/06/29 18:47:16.616, False, 4.318, 0.144503
2023/06/29 18:47:17.112, False, 4.707, 0.144121
2023/06/29 18:47:17.616, False, 4.644, 0.143816
2023/06/29 18:47:18.119, False, 4.315, 0.144427
2023/06/29 18:47:18.615, False, 4.375, 0.143511
2023/06/29 18:47:19.120, False, 4.642, 0.143130
2023/06/29 18:47:19.624, False, 4.311, 0.144961
2023/06/29 18:47:20.119, False, 4.383, 0.144961
2023/06/29 18:47:20.624, False, 4.641, 0.143053
2023/06/29 18:47:21.127, False, 4.312, 0.145495
2023/06/29 18:47:21.624, False, 4.721, 0.143664
2023/06/29 18:47:22.128, False, 4.310, 0.145342
2023/06/29 18:47:22.632, False, 4.307, 0.144198
2023/06/29 18:47:23.136, False, 4.643, 0.142290
2023/06/29 18:47:23.632, False, 4.717, 0.144274
2023/06/29 18:47:24.136, False, 4.308, 0.146029
2023/06/29 18:47:24.640, False, 4.649, 0.143893
2023/06/29 18:47:25.136, False, 4.716, 0.143740
2023/06/29 18:47:25.640, False, 4.637, 0.142061
2023/06/29 18:47:26.144, False, 4.642, 0.142443
2023/06/29 18:47:26.640, False, 4.388, 0.143969
2023/06/29 18:47:27.144, False, 4.635, 0.142901
2023/06/29 18:47:27.647, False, 4.643, 0.142367
2023/06/29 18:47:28.144, False, 4.380, 0.144350
2023/06/29 18:47:28.647, False, 4.647, 0.146105
2023/06/29 18:47:29.144, False, 4.712, 0.142748
2023/06/29 18:47:29.648, False, 4.643, 0.142977
2023/06/29 18:47:30.152, False, 4.648, 0.143282
2023/06/29 18:47:30.656, False, 4.637, 0.142290
2023/06/29 18:47:31.152, False, 4.387, 0.142901
2023/06/29 18:47:31.656, False, 4.636, 0.143664
2023/06/29 18:47:32.160, False, 4.642, 0.142061
2023/06/29 18:47:32.656, False, 4.381, 0.142977
2023/06/29 18:47:33.160, False, 4.642, 0.144350
2023/06/29 18:47:33.664, False, 4.644, 0.143206
2023/06/29 18:47:34.167, False, 4.640, 0.144045
2023/06/29 18:47:34.664, False, 4.717, 0.142824
2023/06/29 18:47:35.167, False, 4.646, 0.145037
2023/06/29 18:47:35.672, False, 4.639, 0.144656
2023/06/29 18:47:36.167, False, 4.380, 0.143130
2023/06/29 18:47:36.672, False, 4.646, 0.142977
2023/06/29 18:47:37.176, False, 4.308, 0.143435
2023/06/29 18:47:37.672, False, 4.726, 0.144656
2023/06/29 18:47:38.176, False, 4.303, 0.145724
2023/06/29 18:47:38.680, False, 4.643, 0.148013
2023/06/29 18:47:39.176, False, 4.717, 0.145647
2023/06/29 18:47:39.679, False, 4.311, 0.142672
2023/06/29 18:47:40.184, False, 4.642, 0.144732
2023/06/29 18:47:40.680, False, 4.380, 0.142443
2023/06/29 18:47:41.184, False, 4.311, 0.143435
2023/06/29 18:47:41.687, False, 4.643, 0.145037
2023/06/29 18:47:42.184, False, 4.386, 0.144732
2023/06/29 18:47:42.688, False, 4.636, 0.144427
2023/06/29 18:47:43.192, False, 4.643, 0.143816
2023/06/29 18:47:43.687, False, 4.380, 0.143206
2023/06/29 18:47:44.191, False, 4.650, 0.146029
2023/06/29 18:47:44.696, False, 4.634, 0.145953
2023/06/29 18:47:45.200, False, 4.642, 0.143130
2023/06/29 18:47:45.696, False, 4.388, 0.142443
2023/06/29 18:47:46.200, False, 4.303, 0.144656
2023/06/29 18:47:46.696, False, 4.388, 0.143053
2023/06/29 18:47:47.200, False, 4.304, 0.142519
2023/06/29 18:47:47.704, False, 4.646, 0.144656
2023/06/29 18:47:48.208, False, 4.308, 0.145876
2023/06/29 18:47:48.704, False, 4.380, 0.145190
2023/06/29 18:47:49.207, False, 4.642, 0.141833
2023/06/29 18:47:49.712, False, 4.648, 0.144961
2023/06/29 18:47:50.208, False, 4.375, 0.144121
2023/06/29 18:47:50.712, False, 4.642, 0.143740
2023/06/29 18:47:51.207, False, 4.719, 0.141909
2023/06/29 18:47:51.712, False, 4.310, 0.143969
2023/06/29 18:47:52.216, False, 4.642, 0.145724
2023/06/29 18:47:52.720, False, 4.642, 0.144961
2023/06/29 18:47:53.216, False, 4.386, 0.142443
2023/06/29 18:47:53.720, False, 4.638, 0.143282
2023/06/29 18:47:54.224, False, 4.641, 0.142672
2023/06/29 18:47:54.720, False, 4.717, 0.142901
2023/06/29 18:47:55.224, False, 4.316, 0.145113
2023/06/29 18:47:55.727, False, 4.641, 0.145418
2023/06/29 18:47:56.232, False, 4.638, 0.142748
2023/06/29 18:47:56.728, False, 4.380, 0.144808
2023/06/29 18:47:57.232, False, 4.313, 0.143359
2023/06/29 18:47:57.736, False, 4.309, 0.143282
2023/06/29 18:47:58.232, False, 4.718, 0.145113
2023/06/29 18:47:58.736, False, 4.649, 0.143282
2023/06/29 18:47:59.240, False, 4.305, 0.143664
2023/06/29 18:47:59.736, False, 4.381, 0.141375
2023/06/29 18:48:00.239, False, 4.642, 0.144884
2023/06/29 18:48:00.744, False, 4.311, 0.145953
2023/06/29 18:48:01.240, False, 4.380, 0.141451
2023/06/29 18:48:01.743, False, 4.643, 0.143740
2023/06/29 18:48:02.248, False, 4.646, 0.141985
2023/06/29 18:48:02.744, False, 4.376, 0.143893
2023/06/29 18:48:03.248, False, 4.642, 0.143816
2023/06/29 18:48:03.752, False, 4.643, 0.144121
2023/06/29 18:48:04.247, False, 4.380, 0.144198
2023/06/29 18:48:04.752, False, 4.314, 0.142977
2023/06/29 18:48:05.255, False, 4.308, 0.144884
2023/06/29 18:48:05.760, False, 4.311, 0.144503
2023/06/29 18:48:06.256, False, 4.717, 0.143053
2023/06/29 18:48:06.760, False, 4.311, 0.145190
2023/06/29 18:48:07.264, False, 4.642, 0.145647
2023/06/29 18:48:07.760, False, 4.380, 0.144350